EW2270 Weather Reports


time (UTC)temp
C
wind
direction
speed
KPH
gust
KPH
rain 1hr
cm
rain 24hr
cm
rain mn
cm
humidity
%
barometer
mb
20260509040107 16 238 6.4 16.1 0.00 0.00 0.00 44 1017.2
20260509034556 16 207 11.3 16.1 0.00 0.00 0.00 43 1016.8
20260509033055 16 193 6.4 16.1 0.00 0.00 0.00 43 1016.7
20260509031552 17 193 11.3 19.3 0.00 0.00 0.00 40 1016.2
20260509030050 17 199 11.3 20.9 0.00 0.00 0.00 38 1015.7
20260509024548 18 262 19.3 32.2 0.00 0.00 0.00 35 1015.6
20260509023048 19 239 22.5 38.6 0.00 0.00 0.00 34 1015.4
20260509021547 20 255 20.9 43.5 0.00 0.00 0.00 33 1015.2
20260509020047 20 265 24.1 38.6 0.00 0.00 0.00 32 1015.0
20260509014546 21 245 37.0 49.9 0.00 0.00 0.00 30 1015.0
20260509013058 21 272 25.7 43.5 0.00 0.00 0.00 29 1014.7
20260509011545 21 236 24.1 45.1 0.00 0.00 0.00 26 1014.7
20260509010044 21 255 32.2 45.1 0.00 0.00 0.00 25 1014.8
20260509004607 22 257 32.2 49.9 0.00 0.00 0.00 25 1014.9
20260509003048 22 232 35.4 49.9 0.00 0.00 0.00 25 1015.1
20260509001543 22 271 30.6 48.3 0.00 0.00 0.00 25 1014.9
20260509000042 22 263 30.6 45.1 0.00 0.00 0.00 23 1015.0
20260508234545 22 252 27.4 43.5 0.00 0.00 0.00 21 1014.9
20260508233040 22 250 29.0 43.5 0.00 0.00 0.00 22 1014.9
20260508231539 22 229 30.6 53.1 0.00 0.00 0.00 18 1014.9
20260508230052 22 269 24.1 41.8 0.00 0.00 0.00 22 1014.8
20260508224538 22 254 24.1 40.2 0.00 0.00 0.00 20 1014.8
20260508223036 22 259 29.0 38.6 0.00 0.00 0.00 21 1014.9
20260508221537 22 253 22.5 40.2 0.00 0.00 0.00 24 1014.9
20260508220034 22 249 25.7 37.0 0.00 0.00 0.00 24 1014.8
20260508214534 22 273 27.4 37.0 0.00 0.00 0.00 24 1014.9
20260508213031 22 262 22.5 33.8 0.00 0.00 0.00 26 1014.9
20260508211534 21 285 24.1 35.4 0.00 0.00 0.00 31 1015.0
20260508210035 21 258 27.4 43.5 0.00 0.00 0.00 30 1015.0
20260508204529 22 285 25.7 43.5 0.00 0.00 0.00 34 1014.7
20260508203028 22 288 29.0 38.6 0.00 0.00 0.00 32 1014.7
20260508201527 23 245 17.7 27.4 0.00 0.00 0.00 28 1014.3
20260508200036 22 290 4.8 12.9 0.00 0.00 0.00 32 1014.2
20260508194522 21 259 4.8 11.3 0.00 0.00 0.00 30 1014.4
20260508193022 21 269 6.4 16.1 0.00 0.00 0.00 33 1014.4
20260508191524 21 214 1.6 14.5 0.00 0.00 0.00 31 1014.6
20260508190021 21 241 4.8 24.1 0.00 0.00 0.00 31 1014.9
20260508184528 20 207 4.8 12.9 0.00 0.00 0.00 38 1015.0
20260508183014 19 265 4.8 14.5 0.00 0.00 0.00 41 1015.2
20260508181525 18 273 4.8 14.5 0.00 0.00 0.00 41 1015.5
20260508180011 18 252 9.7 17.7 0.00 0.00 0.00 40 1015.6
20260508174513 18 313 6.4 12.9 0.00 0.00 0.00 42 1015.6
20260508173008 18 251 4.8 17.7 0.00 0.00 0.00 39 1015.7
20260508171506 18 257 11.3 19.3 0.00 0.00 0.00 39 1015.8
20260508170004 17 245 4.8 11.3 0.00 0.00 0.00 43 1015.7
20260508164501 17 250 4.8 8.0 0.00 0.00 0.00 43 1015.6
20260508163100 16 7 3.2 11.3 0.00 0.00 0.00 41 1015.4
20260508161558 16 307 4.8 9.7 0.00 0.00 0.00 46 1015.3
20260508160057 16 326 3.2 6.4 0.00 0.00 0.00 45 1015.3
20260508154557 17 214 4.8 8.0 0.00 0.00 0.00 39 1015.1
20260508153054 16 257 3.2 6.4 0.00 0.00 0.00 41 1015.1
20260508151600 16 218 6.4 11.3 0.00 0.00 0.00 39 1015.1
20260508150059 15 102 1.6 3.2 0.00 0.00 0.00 52 1015.1
20260508144604 13 206 1.6 3.2 0.00 0.00 0.00 49 1015.1
20260508143045 12 217 1.6 3.2 0.00 0.00 0.00 55 1015.1
20260508141551 11 191 0.0 1.6 0.00 0.00 0.00 53 1015.0
20260508140048 10 191 0.0 6.4 0.00 0.00 0.00 55 1015.1
20260508134544 9 107 0.0 0.0 0.00 0.00 0.00 57 1014.9
20260508133105 8 251 0.0 3.2 0.00 0.00 0.00 56 1014.7
20260508131535 8 191 1.6 8.0 0.00 0.00 0.00 58 1014.5
20260508130037 8 141 6.4 11.3 0.00 0.00 0.00 55 1014.4
20260508124534 11 138 3.2 9.7 0.00 0.00 0.00 43 1014.3
20260508123031 13 139 3.2 19.3 0.00 0.00 0.00 35 1014.3
20260508121535 14 199 9.7 19.3 0.00 0.00 0.00 33 1014.3
20260508120027 13 153 9.7 14.5 0.00 0.00 0.00 33 1014.4
20260508114525 12 158 11.3 17.7 0.00 0.00 0.00 34 1014.3
20260508113024 11 143 9.7 16.1 0.00 0.00 0.00 37 1014.2
20260508111522 11 146 9.7 16.1 0.00 0.00 0.00 40 1014.1
20260508110041 8 153 6.4 14.5 0.00 0.00 0.00 45 1014.0
20260508104517 7 143 4.8 11.3 0.00 0.00 0.00 51 1013.8
20260508103016 6 148 3.2 6.4 0.00 0.00 0.00 55 1013.8
20260508101516 7 110 0.0 1.6 0.00 0.00 0.00 53 1013.9
20260508100017 6 110 4.8 6.4 0.00 0.00 0.00 55 1013.7
20260508094509 7 143 0.0 4.8 0.00 0.00 0.00 50 1013.8
20260508093008 7 148 3.2 6.4 0.00 0.00 0.00 48 1013.7
20260508091504 8 242 4.8 6.4 0.00 0.00 0.00 45 1013.6
20260508090004 10 105 1.6 8.0 0.00 0.00 0.00 36 1013.4
20260508084501 8 115 4.8 6.4 0.00 0.00 0.00 40 1013.5
20260508083057 10 136 3.2 8.0 0.00 0.00 0.00 39 1013.5
20260508081602 10 120 3.2 8.0 0.00 0.00 0.00 34 1013.6
20260508080052 12 179 3.2 12.9 0.00 0.00 0.00 30 1013.7
20260508074550 12 139 4.8 11.3 0.00 0.00 0.00 29 1013.7
20260508073053 11 135 4.8 11.3 0.00 0.00 0.00 35 1013.7
20260508071553 13 144 11.3 16.1 0.00 0.00 0.00 31 1013.6
20260508070040 13 139 11.3 14.5 0.00 0.00 0.00 33 1013.5
20260508064540 13 135 6.4 11.3 0.00 0.00 0.00 34 1013.3
20260508063038 12 160 9.7 11.3 0.00 0.00 0.00 40 1013.3
20260508061539 11 181 3.2 11.3 0.00 0.00 0.00 46 1013.2
20260508060037 11 142 8.0 11.3 0.00 0.00 0.00 46 1013.1
20260508054536 11 134 8.0 12.9 0.00 0.00 0.00 46 1013.0
20260508053058 11 143 8.0 9.7 0.00 0.00 0.00 50 1012.9
20260508051535 12 155 8.0 9.7 0.00 0.00 0.00 47 1012.7
20260508050035 11 219 6.4 11.3 0.00 0.00 0.00 56 1012.6
20260508044534 12 129 9.7 12.9 0.00 0.00 0.00 43 1012.4
20260508043033 13 147 8.0 12.9 0.00 0.00 0.00 44 1012.3
20260508041554 13 133 4.8 12.9 0.00 0.00 0.00 44 1012.3